Location: Chena
(64.8152°N, 147.9227°W)
Time: 10:14:22
(UTC+00:00)

Vanguard 2 - Visible Passes

Search period start: 01 March 2021 00:00
Search period end: 11 March 2021 00:00
Orbit: 552 x 2938 km, 32.9° (Epoch: 28 February)

Date Brightness Start Highest point End Pass type
(mag) Time Alt. Az. Time Alt. Az. Time Alt. Az.
01 Mar 11.7 13:45:21 10° SSE 13:50:37 12° SSE 13:56:00 10° SE visible
01 Mar 11.7 15:48:34 10° SSW 15:57:54 17° S 16:07:09 10° SE visible
02 Mar 11.6 14:00:14 10° S 14:07:12 14° SSE 14:14:26 10° SE visible
02 Mar 11.6 16:05:11 10° SSW 16:14:37 17° S 16:24:01 10° SSE visible
03 Mar 11.5 14:15:55 10° S 14:23:50 15° SSE 14:32:08 10° SE visible
04 Mar 11.5 14:32:05 10° SSW 14:40:31 16° SSE 14:49:26 10° SE visible
05 Mar 11.5 12:46:00 10° SSE 12:50:08 11° SSE 12:54:31 10° SE visible
05 Mar 11.4 14:48:37 10° SSW 14:57:14 17° S 15:06:26 10° SE visible
06 Mar 11.4 13:01:01 10° S 13:06:44 13° SSE 13:12:55 10° SE visible
06 Mar 11.4 15:05:25 10° SSW 15:13:57 17° S 15:23:08 10° SSE visible
07 Mar 11.3 13:16:52 10° S 13:23:22 14° SSE 13:30:32 10° SE visible
07 Mar 11.4 15:22:30 10° SW 15:30:42 16° S 15:39:30 10° SSE visible
08 Mar 11.2 13:33:12 10° SSW 13:40:04 15° SSE 13:47:43 10° SE visible
08 Mar 11.4 15:39:54 10° SW 15:47:26 15° S 15:55:31 10° SSE visible
09 Mar 11.2 13:49:53 10° SSW 13:56:48 15° S 14:04:33 10° SE visible
10 Mar 11.2 12:04:22 10° SSE 12:06:38 11° SSE 12:09:39 10° SE visible
10 Mar 11.2 14:06:54 10° SSW 14:13:34 15° S 14:21:02 10° SSE visible
